Location: South Range
(44.4886°N, 65.7879°W)
Time: 21:01:13
(UTC-03:00)

Iridium 56 - Visible Passes

Search period start: 24 March 2017 00:00
Search period end: 03 April 2017 00:00
Orbit: 776 x 779 km, 86.4° (Epoch: 23 March)

Date Brightness Start Highest point End Pass type
(mag) Time Alt. Az. Time Alt. Az. Time Alt. Az.
24 Mar 8.2 02:46:05 10° N 02:46:49 14° N 02:46:49 14° N visible
25 Mar 8.2 02:12:36 10° N 02:13:24 14° N 02:13:24 14° N visible
26 Mar 8.3 01:39:23 10° NNE 01:40:00 13° NNE 01:40:00 13° NNE visible
26 Mar 8.2 03:20:09 10° NNW 03:20:28 11° NNW 03:20:28 11° NNW visible
27 Mar 8.1 02:46:15 10° NNW 02:47:03 15° NNW 02:47:03 15° NNW visible
28 Mar 8.1 02:12:37 10° N 02:13:39 16° N 02:13:39 16° N visible
29 Mar 8.2 01:39:15 10° N 01:40:15 16° NNE 01:40:15 16° NNE visible
29 Mar 8.2 03:20:39 10° NNW 03:20:43 10° NNW 03:20:43 10° NNW visible
30 Mar 8.2 01:06:10 10° NNE 01:06:51 13° NNE 01:06:51 13° NNE visible
30 Mar 8.1 02:46:31 10° NNW 02:47:20 14° NNW 02:47:20 14° NNW visible
31 Mar 8.0 02:12:44 10° N 02:13:56 17° N 02:13:56 17° N visible
01 Apr 8.0 01:39:13 10° N 01:40:33 18° N 01:40:33 18° N visible
02 Apr 8.0 01:05:56 10° NNE 01:07:10 16° NNE 01:07:10 16° NNE visible
02 Apr 8.1 02:46:55 10° NNW 02:47:38 13° NNW 02:47:38 13° NNW visible
